KLM2635 LFLL-LIML

Flight info

Callsign KLM2635
Flight time 0h 50m
Altitude 23000
Route RISOR T47 GEMLA DCT VANAS DCT MEDAM DCT NITAM DCT MOGBO DCT TOP
Aircraft A321/M-SDE3FGHIRWY/LB1

Departure

Time 2026-04-27 17:48
Airport Lyon Saint-Exupéry Airport (LFLL)

Arrival

Time 2026-04-27 18:38
Airport Milano Linate Airport (LIML)
Time Latitude Longitude Altitude Speed Heading
2026-04-27 17:33 45.71821 5.08044 795 ft 0 kts 261°
2026-04-27 17:42 45.71821 5.08047 795 ft 3 kts 261°
2026-04-27 17:42 45.71829 5.08071 795 ft 3 kts 205°
2026-04-27 17:43 45.71834 5.08075 795 ft 0 kts 185°
2026-04-27 17:44 45.71825 5.08074 795 ft 5 kts 184°
2026-04-27 17:44 45.71771 5.08122 796 ft 12 kts 162°
2026-04-27 17:44 45.71707 5.08083 797 ft 10 kts 204°
2026-04-27 17:45 45.71640 5.08056 797 ft 10 kts 194°
2026-04-27 17:45 45.71569 5.08030 798 ft 13 kts 195°
2026-04-27 17:45 45.71465 5.08033 800 ft 18 kts 133°
2026-04-27 17:45 45.71418 5.08244 801 ft 26 kts 103°
2026-04-27 17:46 45.71403 5.08488 801 ft 20 kts 112°
2026-04-27 17:46 45.71284 5.08541 803 ft 22 kts 174°
2026-04-27 17:46 45.71130 5.08605 805 ft 21 kts 123°
2026-04-27 17:46 45.71097 5.08773 805 ft 16 kts 109°
2026-04-27 17:47 45.71085 5.08944 805 ft 22 kts 71°
2026-04-27 17:47 45.71171 5.09016 803 ft 26 kts 350°
2026-04-27 17:47 45.71779 5.08944 800 ft 117 kts 355°
2026-04-27 17:47 45.72816 5.08815 827 ft 176 kts 356°
2026-04-27 17:48 45.74093 5.08671 1372 ft 187 kts 357°
2026-04-27 17:48 45.75367 5.08521 2004 ft 185 kts 356°
2026-04-27 17:48 45.76670 5.08361 2481 ft 186 kts 356°
2026-04-27 17:48 45.77998 5.08198 2640 ft 204 kts 355°
2026-04-27 17:49 45.79488 5.08017 2785 ft 226 kts 356°
2026-04-27 17:49 45.81099 5.07820 3268 ft 236 kts 356°
2026-04-27 17:49 45.82725 5.08003 3956 ft 239 kts 23°
2026-04-27 17:49 45.83985 5.09532 4623 ft 245 kts 59°
2026-04-27 17:50 45.84344 5.11920 5272 ft 255 kts 96°
2026-04-27 17:50 45.82113 5.15633 6567 ft 262 kts 161°
2026-04-27 17:50 45.80361 5.16395 7262 ft 263 kts 168°
2026-04-27 17:51 45.78582 5.17014 7987 ft 264 kts 168°
2026-04-27 17:51 45.76800 5.17701 8724 ft 266 kts 166°
2026-04-27 17:51 45.75032 5.18500 9454 ft 267 kts 163°
2026-04-27 17:51 45.73275 5.19406 10157 ft 269 kts 160°
2026-04-27 17:52 45.71649 5.20769 10778 ft 275 kts 142°
2026-04-27 17:52 45.70326 5.22871 11035 ft 297 kts 127°
2026-04-27 17:52 45.69100 5.25398 11166 ft 320 kts 126°
2026-04-27 17:52 45.67786 5.28111 11294 ft 342 kts 126°
2026-04-27 17:53 45.66396 5.30967 11604 ft 355 kts 126°
2026-04-27 17:53 45.64966 5.33883 12199 ft 360 kts 127°
2026-04-27 17:53 45.63522 5.36816 12853 ft 362 kts 127°
2026-04-27 17:53 45.62065 5.39766 13513 ft 365 kts 127°
2026-04-27 17:54 45.60592 5.42744 14136 ft 368 kts 127°
2026-04-27 17:54 45.59107 5.45738 14682 ft 372 kts 127°
2026-04-27 17:54 45.57604 5.48766 15231 ft 376 kts 127°
2026-04-27 17:54 45.56084 5.51826 15751 ft 380 kts 127°
2026-04-27 17:55 45.54552 5.54914 16288 ft 384 kts 127°
2026-04-27 17:55 45.53042 5.58076 16802 ft 388 kts 121°
2026-04-27 17:55 45.51916 5.61595 17322 ft 393 kts 109°
2026-04-27 17:55 45.51328 5.65421 17816 ft 398 kts 96°
2026-04-27 17:56 45.51325 5.69369 18320 ft 402 kts 83°
2026-04-27 17:56 45.51700 5.73341 18769 ft 405 kts 82°
2026-04-27 17:56 45.52082 5.77340 19200 ft 408 kts 82°
2026-04-27 17:56 45.52462 5.81365 19623 ft 412 kts 82°
2026-04-27 17:57 45.52838 5.85426 20055 ft 414 kts 82°
2026-04-27 17:57 45.53207 5.89513 20492 ft 417 kts 82°
2026-04-27 17:57 45.53580 5.93635 20927 ft 420 kts 82°
2026-04-27 17:57 45.53957 5.97778 21345 ft 423 kts 82°
2026-04-27 17:58 45.54341 6.01948 21776 ft 426 kts 82°
2026-04-27 17:58 45.54723 6.06100 22187 ft 429 kts 82°
2026-04-27 17:58 45.55107 6.10327 22586 ft 432 kts 82°
2026-04-27 17:58 45.55492 6.14594 22965 ft 435 kts 82°
2026-04-27 17:59 45.55877 6.18882 23065 ft 434 kts 82°
2026-04-27 17:59 45.56258 6.23146 23078 ft 433 kts 82°
2026-04-27 17:59 45.56637 6.27401 23090 ft 431 kts 82°
2026-04-27 17:59 45.56776 6.31668 23093 ft 431 kts 92°
2026-04-27 18:00 45.56409 6.35900 23098 ft 430 kts 103°
2026-04-27 18:00 45.55546 6.39981 23103 ft 429 kts 112°
2026-04-27 18:00 45.54424 6.43933 23109 ft 430 kts 112°
2026-04-27 18:00 45.53302 6.47884 23113 ft 430 kts 112°
2026-04-27 18:01 45.52185 6.51833 23112 ft 430 kts 112°
2026-04-27 18:01 45.51070 6.55788 23116 ft 429 kts 112°
2026-04-27 18:01 45.49958 6.59736 23117 ft 430 kts 112°
2026-04-27 18:01 45.48843 6.63686 23115 ft 429 kts 112°
2026-04-27 18:02 45.47727 6.67630 23116 ft 429 kts 112°
2026-04-27 18:02 45.46414 6.71436 23118 ft 428 kts 122°
2026-04-27 18:02 45.44671 6.74859 23121 ft 426 kts 132°
2026-04-27 18:02 45.42555 6.77798 23117 ft 424 kts 142°
2026-04-27 18:03 45.40170 6.80258 23119 ft 424 kts 147°
2026-04-27 18:03 45.37754 6.82667 23119 ft 424 kts 146°
2026-04-27 18:03 45.35346 6.85081 23114 ft 424 kts 146°
2026-04-27 18:03 45.32938 6.87499 23117 ft 424 kts 146°
2026-04-27 18:04 45.30529 6.89915 23116 ft 424 kts 146°
2026-04-27 18:04 45.28118 6.92327 23123 ft 424 kts 146°
2026-04-27 18:04 45.25791 6.94904 23121 ft 425 kts 138°
2026-04-27 18:04 45.23668 6.97820 23118 ft 425 kts 136°
2026-04-27 18:05 45.21549 7.00747 23117 ft 425 kts 136°
2026-04-27 18:05 45.19455 7.03634 23119 ft 425 kts 136°
2026-04-27 18:05 45.17303 7.06597 23121 ft 426 kts 136°
2026-04-27 18:05 45.15177 7.09516 23111 ft 425 kts 136°
2026-04-27 18:06 45.13055 7.12427 23122 ft 425 kts 136°
2026-04-27 18:06 45.10960 7.15385 23125 ft 425 kts 132°
2026-04-27 18:06 45.09150 7.18698 23128 ft 425 kts 125°
2026-04-27 18:06 45.07455 7.22120 23128 ft 425 kts 125°
2026-04-27 18:07 45.05755 7.25552 23132 ft 425 kts 125°
2026-04-27 18:07 45.04062 7.28971 23131 ft 425 kts 125°
2026-04-27 18:07 45.02385 7.32352 23131 ft 425 kts 125°
2026-04-27 18:07 45.00685 7.35774 23124 ft 426 kts 125°
2026-04-27 18:08 44.99119 7.39381 23042 ft 425 kts 116°
2026-04-27 18:08 44.98023 7.43191 23045 ft 424 kts 106°
2026-04-27 18:08 44.97369 7.47305 23044 ft 423 kts 98°
2026-04-27 18:08 44.96878 7.51398 23043 ft 424 kts 99°
2026-04-27 18:09 44.96387 7.55449 23042 ft 424 kts 99°
2026-04-27 18:09 44.95884 7.59545 23043 ft 424 kts 99°
2026-04-27 18:09 44.95374 7.63647 23050 ft 424 kts 99°
2026-04-27 18:09 44.94862 7.67751 23045 ft 424 kts 99°
2026-04-27 18:10 44.94347 7.71849 23048 ft 424 kts 99°
2026-04-27 18:10 44.93830 7.75941 23049 ft 423 kts 99°
2026-04-27 18:10 44.93314 7.80031 23043 ft 423 kts 99°
2026-04-27 18:10 44.92806 7.84117 23043 ft 423 kts 97°
2026-04-27 18:11 44.92617 7.88239 23039 ft 421 kts 87°
2026-04-27 18:11 44.92769 7.92370 23039 ft 421 kts 85°
2026-04-27 18:11 44.92931 7.96490 23042 ft 421 kts 85°
2026-04-27 18:11 44.93087 8.00610 23040 ft 421 kts 86°
2026-04-27 18:12 44.93238 8.04739 23049 ft 421 kts 86°
2026-04-27 18:12 44.93385 8.08865 23047 ft 421 kts 86°
2026-04-27 18:12 44.93532 8.12986 23045 ft 421 kts 86°
2026-04-27 18:12 44.93681 8.17109 23043 ft 420 kts 86°
2026-04-27 18:13 44.93840 8.21226 23042 ft 420 kts 85°
2026-04-27 18:13 44.94010 8.25351 23016 ft 419 kts 85°
2026-04-27 18:13 44.94127 8.29421 22543 ft 413 kts 91°
2026-04-27 18:13 44.93943 8.33458 21988 ft 410 kts 93°
2026-04-27 18:14 44.93740 8.37449 21440 ft 407 kts 93°
2026-04-27 18:14 44.93537 8.41414 20911 ft 403 kts 93°
2026-04-27 18:14 44.93331 8.45343 20389 ft 400 kts 94°
2026-04-27 18:14 44.93121 8.49249 19868 ft 398 kts 93°
2026-04-27 18:15 44.92912 8.53118 19362 ft 395 kts 94°
2026-04-27 18:15 44.92703 8.56968 18892 ft 392 kts 94°
2026-04-27 18:15 44.92496 8.60788 18419 ft 389 kts 94°
2026-04-27 18:15 44.92291 8.64581 17880 ft 387 kts 94°
2026-04-27 18:16 44.92087 8.68346 17438 ft 382 kts 93°
2026-04-27 18:16 44.91885 8.72082 16882 ft 381 kts 93°
2026-04-27 18:16 44.91679 8.75793 16433 ft 377 kts 94°
2026-04-27 18:16 44.91473 8.79467 15976 ft 374 kts 94°
2026-04-27 18:17 44.91268 8.83108 15561 ft 370 kts 93°
2026-04-27 18:17 44.91068 8.86664 15413 ft 358 kts 94°
2026-04-27 18:17 44.90733 8.90079 15294 ft 346 kts 104°
2026-04-27 18:17 44.89942 8.93224 15168 ft 335 kts 111°
2026-04-27 18:18 44.89071 8.96239 14902 ft 330 kts 111°
2026-04-27 18:18 44.88211 8.99223 14576 ft 327 kts 111°
2026-04-27 18:18 44.87370 9.02148 14449 ft 317 kts 111°
2026-04-27 18:18 44.86556 9.04981 14331 ft 307 kts 111°
2026-04-27 18:19 44.85761 9.07745 14118 ft 302 kts 111°
2026-04-27 18:19 44.84976 9.10475 13777 ft 300 kts 111°
2026-04-27 18:19 44.84195 9.13190 13455 ft 298 kts 111°
2026-04-27 18:19 44.83420 9.15884 13129 ft 296 kts 111°
2026-04-27 18:20 44.82665 9.18558 12808 ft 292 kts 107°
2026-04-27 18:20 44.82270 9.21341 12467 ft 289 kts 92°
2026-04-27 18:20 44.82351 9.24148 12116 ft 287 kts 84°
2026-04-27 18:20 44.82515 9.26937 11771 ft 285 kts 84°
2026-04-27 18:21 44.82667 9.29719 11434 ft 284 kts 85°
2026-04-27 18:21 44.82815 9.32468 11158 ft 280 kts 85°
2026-04-27 18:21 44.82963 9.35185 10951 ft 277 kts 85°
2026-04-27 18:21 44.83107 9.37888 10745 ft 276 kts 85°
2026-04-27 18:22 44.83252 9.40581 10555 ft 275 kts 85°
2026-04-27 18:22 44.83395 9.43269 10368 ft 275 kts 85°
2026-04-27 18:22 44.83538 9.45945 10177 ft 274 kts 84°
2026-04-27 18:22 44.83909 9.48556 10008 ft 272 kts 70°
2026-04-27 18:23 44.84742 9.50925 9779 ft 270 kts 57°
2026-04-27 18:23 44.85714 9.53183 9583 ft 269 kts 58°
2026-04-27 18:23 44.86676 9.55444 9396 ft 269 kts 58°
2026-04-27 18:23 44.87629 9.57698 9211 ft 265 kts 58°
2026-04-27 18:24 44.88656 9.59759 9104 ft 251 kts 44°
2026-04-27 18:24 44.90049 9.61107 8999 ft 243 kts 22°
2026-04-27 18:24 44.91117 9.61544 8889 ft 231 kts
2026-04-27 18:24 44.93130 9.61487 8652 ft 208 kts 354°
2026-04-27 18:25 44.94086 9.61387 8544 ft 199 kts 354°
2026-04-27 18:25 44.95842 9.61205 8351 ft 184 kts 354°
2026-04-27 18:25 44.97098 9.60988 8232 ft 180 kts 341°
2026-04-27 18:25 44.98163 9.60169 8119 ft 172 kts 317°
2026-04-27 18:26 44.98717 9.59262 8041 ft 190 kts 302°
2026-04-27 18:26 44.99162 9.57400 7887 ft 211 kts 275°
2026-04-27 18:26 44.99089 9.55275 7712 ft 220 kts 265°
2026-04-27 18:26 44.98969 9.53114 7560 ft 221 kts 265°
2026-04-27 18:27 44.98848 9.50946 7402 ft 221 kts 265°
2026-04-27 18:27 44.98731 9.48785 7249 ft 221 kts 265°
2026-04-27 18:27 44.98616 9.46624 7093 ft 220 kts 265°
2026-04-27 18:27 44.98499 9.44476 6942 ft 220 kts 265°
2026-04-27 18:28 44.98382 9.42319 6789 ft 220 kts 265°
2026-04-27 18:28 44.98267 9.40168 6631 ft 219 kts 265°
2026-04-27 18:28 44.98150 9.38024 6476 ft 219 kts 265°
2026-04-27 18:28 44.98075 9.35883 6319 ft 218 kts 274°
2026-04-27 18:29 44.98615 9.33901 6153 ft 220 kts 307°
2026-04-27 18:29 44.99842 9.32651 5990 ft 222 kts 340°
2026-04-27 18:29 45.01364 9.32375 5834 ft 221 kts 355°
2026-04-27 18:29 45.02893 9.32226 5664 ft 220 kts 355°
2026-04-27 18:30 45.04418 9.32060 5510 ft 220 kts 355°
2026-04-27 18:30 45.05926 9.31892 5350 ft 212 kts 355°
2026-04-27 18:30 45.07310 9.31739 5228 ft 185 kts 355°
2026-04-27 18:30 45.08504 9.31607 5081 ft 165 kts 355°
2026-04-27 18:31 45.09642 9.31482 4973 ft 160 kts 355°
2026-04-27 18:31 45.10750 9.31359 4870 ft 159 kts 355°
2026-04-27 18:31 45.11854 9.31238 4759 ft 159 kts 355°
2026-04-27 18:31 45.12963 9.31116 4656 ft 166 kts 355°
2026-04-27 18:32 45.14184 9.30981 4545 ft 182 kts 355°
2026-04-27 18:32 45.15454 9.30842 4410 ft 184 kts 355°
2026-04-27 18:32 45.16734 9.30702 4277 ft 184 kts 355°
2026-04-27 18:32 45.17994 9.30564 4154 ft 184 kts 355°
2026-04-27 18:33 45.19286 9.30423 4028 ft 184 kts 355°
2026-04-27 18:33 45.20546 9.30285 3904 ft 184 kts 355°
2026-04-27 18:33 45.21827 9.30146 3778 ft 185 kts 355°
2026-04-27 18:33 45.23108 9.30006 3664 ft 185 kts 355°
2026-04-27 18:34 45.24389 9.29867 3522 ft 185 kts 355°
2026-04-27 18:34 45.25669 9.29729 3409 ft 184 kts 355°
2026-04-27 18:34 45.26949 9.29592 3282 ft 184 kts 355°
2026-04-27 18:34 45.28224 9.29455 3159 ft 184 kts 355°
2026-04-27 18:35 45.29471 9.29322 2987 ft 171 kts 355°
2026-04-27 18:35 45.30624 9.29199 2795 ft 162 kts 355°
2026-04-27 18:35 45.31738 9.29080 2594 ft 159 kts 355°
2026-04-27 18:35 45.32840 9.28961 2387 ft 158 kts 355°
2026-04-27 18:36 45.33935 9.28844 2185 ft 158 kts 354°
2026-04-27 18:36 45.35023 9.28727 1975 ft 156 kts 355°
2026-04-27 18:36 45.36111 9.28610 1774 ft 157 kts 355°
2026-04-27 18:36 45.37201 9.28493 1563 ft 157 kts 354°
2026-04-27 18:37 45.38289 9.28376 1351 ft 157 kts 354°
2026-04-27 18:37 45.39376 9.28259 1150 ft 156 kts 355°
2026-04-27 18:37 45.40458 9.28143 972 ft 156 kts 355°
2026-04-27 18:37 45.41536 9.28027 762 ft 154 kts 355°
2026-04-27 18:38 45.42601 9.27914 544 ft 155 kts 355°
2026-04-27 18:38 45.43671 9.27804 371 ft 154 kts 356°
2026-04-27 18:38 45.44532 9.27705 357 ft 66 kts 354°
2026-04-27 18:38 45.44885 9.27666 362 ft 37 kts 356°
2026-04-27 18:39 45.45111 9.27645 361 ft 34 kts 356°
2026-04-27 18:39 45.45331 9.27672 364 ft 28 kts 25°
2026-04-27 18:39 45.45488 9.27813 365 ft 23 kts 17°
2026-04-27 18:39 45.45607 9.27813 363 ft 17 kts
2026-04-27 18:40 45.45746 9.27821 363 ft 22 kts
2026-04-27 18:40 45.45889 9.27837 366 ft 16 kts 31°
2026-04-27 18:40 45.45910 9.27969 369 ft 14 kts 89°
2026-04-27 18:40 45.45919 9.28019 365 ft 4 kts 38°
2026-04-27 18:41 45.45966 9.28029 366 ft 8 kts 10°
2026-04-27 18:41 45.45971 9.28030 368 ft 0 kts
2026-04-27 18:41 45.45972 9.28029 368 ft 0 kts 359°